Volver al catálogo

STARLINK-2680

ActivoComunicacionesVLEO
NORAD 48432·PAYLOAD·🇺🇸 United States

Lanzado May 9, 2021 desde Cape Canaveral Space Force Station

Loading…

Próximos Pases (próximas 24 horas)

TLE

ActualizadoSource: CelesTrak SupGP

Época: Sep 15, 2026, 02:32 UTC

1 48432C 21040E   26258.10604167  .00051514  00000+0  16563-2 0  2582
2 48432  53.1592 351.4047 0001216  89.1727 269.6329 15.31681096    14

Sigue STARLINK-2680 en tiempo real con AllMySat

Download on the App Store